Location: Ballingbuur
(53.0000°N, 5.7667°E)
Time: 06:22:28
(UTC+00:00)

USA 234 - Pass Details

Date: 29 November 2020
Orbit: 1098 x 1110 km, 123.0° (Epoch: 22 January)

Event Time Altitude Azimuth Distance (km) Brightness Sun altitude
Rises 05:48:10 0° 60° (ENE) 3,941 6.8 -13.8°
Reaches altitude 10° 05:50:49 10° 66° (ENE) 2,981 6.3 -13.4°
Maximum altitude 05:57:03 44° 138° (SE) 1,497 4.5 -12.5°
Drops below altitude 10° 06:03:16 10° 209° (SSW) 2,966 5.4 -11.6°
Sets 06:05:53 0° 215° (SW) 3,920 6.0 -11.2°
